Theta_e
349 349 347 346 350 346 345 345 335 330 330 338 341 346 349 348 354 354 353 350 348 347 346 347 350 351 353 354 353 352 353 354 353 352 353 354 356 357
351 349 350 348 349 346 342 341 344 338 332 339 340 344 349 349 354 352 351 349 347 346 345 345 347 348 350 350 349 349 350 350 350 350 349 350 350 352
349 349 349 348 347 346 343 336 340 342 337 340 342 342 344 347 350 352 352 348 347 344 344 344 344 345 346 346 346 345 345 345 345 345 345 346 346 347
346 347 347 352 349 348 349 345 344 341 341 337 343 346 346 346 349 349 352 351 346 346 343 343 342 342 342 342 341 340 339 338 339 339 340 342 344 345
345 348 348 348 347 349 348 347 347 349 345 341 342 346 347 348 348 348 348 349 349 347 341 341 340 340 340 338 336 334 332 332 331 331 333 335 338 342
349 349 351 350 350 350 349 348 348 344 343 342 336 339 341 346 347 344 343 346 347 350 346 342 341 340 339 336 335 333 328 326 325 325 326 328 331 335
347 351 351 353 349 348 349 348 344 342 341 341 340 339 339 340 342 345 343 345 345 345 341 341 341 341 340 337 340 337 330 326 323 322 322 323 324 327
332 349 349 349 349 346 346 346 348 343 341 338 335 337 341 337 341 344 344 340 338 346 343 341 342 339 341 340 338 334 330 327 324 322 321 321 321 323
337 348 347 343 342 351 343 343 341 342 342 338 338 341 341 342 336 341 344 342 341 344 346 341 343 340 342 341 334 332 329 327 325 323 321 320 319 320
348 348 347 343 341 350 343 342 343 344 342 345 346 347 347 346 340 344 343 342 342 343 347 339 344 340 343 341 334 332 329 326 324 321 319 318 316 316
344 345 347 349 343 336 340 343 345 345 341 336 338 342 342 341 346 347 344 339 339 340 344 340 335 340 343 342 341 332 328 324 322 321 319 317 314 313
342 343 339 341 334 332 341 343 342 344 346 348 341 339 339 345 340 347 347 341 339 333 342 339 337 337 333 338 342 339 334 322 319 318 317 316 312 314
338 338 336 324 322 323 322 332 339 341 343 344 346 347 345 345 347 348 348 345 340 340 343 345 339 338 337 334 337 333 334 330 324 322 317 312 310 312
333 335 332 321 319 319 321 326 327 330 335 334 334 336 340 344 347 349 348 349 349 345 347 348 343 341 338 337 335 331 328 326 324 324 319 314 309 311
330 328 323 317 317 322 326 325 324 328 330 331 333 334 337 343 346 347 347 348 349 349 349 349 348 343 340 337 336 333 328 327 322 322 318 315 313 311
321 317 320 320 319 320 324 328 331 333 335 335 336 338 340 341 341 344 341 342 341 341 347 350 349 347 342 340 337 333 335 329 326 325 323 318 316 315
306 310 314 316 319 324 331 332 333 335 336 337 337 339 339 341 340 341 340 339 337 337 338 343 348 348 347 344 338 338 334 332 330 327 323 320 318 317
307 310 313 316 316 319 324 328 329 332 334 337 337 337 336 335 336 336 338 338 338 339 339 340 342 339 339 339 340 338 337 335 333 331 328 325 324 324
311 313 316 320 322 324 324 325 326 330 333 333 334 335 334 335 332 334 334 333 331 333 336 337 338 336 331 329 335 330 338 336 335 332 332 330 329 330
316 319 322 323 324 324 326 324 326 327 326 328 331 333 334 333 333 330 332 331 330 329 333 337 336 334 330 327 329 334 320 338 336 335 334 334 334 331
318 318 321 323 322 321 322 322 323 324 323 322 322 323 328 327 328 328 329 320 325 333 331 332 336 332 338 333 330 330 333 318 331 336 334 332 330 328
313 312 314 318 321 321 321 320 319 319 320 320 321 320 321 323 321 323 322 323 321 327 330 330 330 334 334 331 328 329 331 333 320 320 323 329 331 327
311 310 310 311 311 314 315 315 316 318 317 317 319 320 320 320 321 323 323 322 320 318 318 318 324 327 327 328 326 327 328 329 331 329 330 323 319 320
Wind_Speed
6 6 4 3 4 4 3 3 5 3 3 4 4 8 8 7 11 12 11 21 21 18 17 15 15 14 14 13 11 11 11 12 13 12 12 14 15 17
5 6 5 4 4 3 2 3 3 4 1 4 4 4 11 10 11 10 11 16 20 18 18 16 16 15 14 14 13 13 12 12 13 11 11 11 11 11
6 6 8 4 4 4 3 4 3 4 4 4 3 4 8 11 10 9 8 9 9 18 18 18 17 17 16 15 14 13 12 11 10 10 11 10 10 11
7 7 7 6 7 6 4 5 5 4 4 6 2 1 3 14 11 12 9 9 9 16 19 19 19 18 17 16 15 14 13 13 12 12 12 12 12 12
7 8 8 7 7 6 6 5 4 3 4 3 4 2 1 1 6 7 8 9 8 14 21 22 21 20 19 17 17 15 14 13 12 11 11 11 11 11
9 10 9 11 11 10 9 9 6 5 2 3 2 4 3 4 3 6 5 3 8 9 13 14 17 18 16 16 18 17 17 16 14 13 12 11 10 10
8 8 11 11 12 12 8 9 6 5 5 5 4 4 3 3 7 6 8 7 6 4 4 7 8 9 11 14 16 19 17 16 15 15 14 12 11 11
15 16 9 12 11 16 17 16 12 9 10 6 8 12 13 6 4 8 8 6 6 5 8 7 8 9 10 10 20 20 20 19 18 17 15 14 13 13
13 11 13 7 7 6 11 18 15 15 13 7 11 12 15 13 6 6 10 10 9 6 9 8 8 10 9 10 18 22 21 22 21 19 18 17 15 14
9 12 13 14 11 13 7 9 13 13 11 11 12 14 13 13 11 10 10 10 6 4 11 8 8 10 9 10 17 23 24 24 24 22 21 19 17 16
8 8 7 9 12 13 6 8 9 9 11 18 21 23 18 15 14 5 9 5 6 5 6 7 5 7 9 10 11 24 24 25 23 24 24 22 19 17
5 6 11 11 10 10 7 8 9 10 6 7 7 16 17 19 20 15 11 11 8 2 6 5 4 5 4 5 11 10 13 21 24 24 23 22 19 9
3 4 1 8 8 8 3 4 8 7 8 9 8 7 8 12 13 11 12 11 9 10 6 8 6 5 5 2 3 6 10 8 11 11 15 17 18 17
3 3 5 12 12 7 5 10 13 10 6 6 7 8 10 12 12 14 15 14 11 15 10 9 8 8 7 8 8 2 2 3 7 9 10 10 13 19
3 5 10 13 13 10 12 11 10 4 7 8 9 10 10 11 13 12 12 11 9 8 9 9 10 7 7 8 8 4 5 5 7 7 7 9 10 9
7 7 9 13 14 14 10 7 5 6 7 9 9 9 8 9 10 10 9 7 6 8 9 12 14 13 10 9 7 4 6 7 7 7 8 7 7 9
7 4 4 4 6 7 6 5 4 5 8 8 8 9 10 8 9 8 9 10 11 11 11 10 11 13 11 12 8 8 6 4 8 8 6 7 7 10
2 3 4 5 6 6 6 5 4 7 8 8 8 9 9 8 10 6 7 8 11 12 12 9 8 7 8 6 12 6 8 8 7 9 7 8 9 10
2 4 5 5 4 4 4 4 4 5 8 8 6 8 9 8 7 8 9 7 7 8 5 7 7 9 9 8 3 13 8 5 4 8 9 9 9 10
3 5 7 6 6 5 5 4 4 5 4 6 7 7 5 7 7 8 9 10 10 9 8 8 10 12 13 14 11 8 17 11 10 10 10 9 9 9
8 8 8 8 7 5 6 6 5 5 4 4 4 4 4 5 5 4 7 9 10 11 13 12 12 17 8 3 4 4 4 17 11 11 9 8 8 6
4 7 8 9 9 8 8 8 5 6 7 5 6 5 4 4 6 7 4 5 2 8 7 2 2 7 7 8 9 7 5 6 10 16 10 12 6 7
3 3 4 5 5 7 9 9 10 9 9 9 8 8 7 5 5 7 7 4 3 2 5 7 4 2 6 7 8 8 9 9 8 9 10 19 16 12
Wind_Direction
221 216 219 242 240 213 165 183 155 205 238 227 164 199 198 185 201 200 192 197 197 198 192 199 197 200 204 210 217 230 236 232 230 235 226 227 231 230
212 224 213 229 234 246 221 216 204 153 242 203 240 189 201 198 196 190 194 190 192 192 196 196 198 201 205 210 214 219 222 219 217 214 220 225 234 245
200 217 232 226 238 248 224 232 214 170 215 278 203 256 195 186 191 193 176 186 199 197 200 198 200 202 207 212 214 215 216 214 215 220 226 231 241 248
203 213 220 214 231 224 230 241 231 209 188 241 243 297 227 188 186 183 189 192 197 208 199 203 203 203 206 208 211 212 212 212 213 217 223 226 229 237
200 209 224 206 223 226 231 227 233 229 216 169 242 203 145 92 175 182 182 195 196 203 206 205 206 208 207 206 208 209 211 213 216 217 220 226 234 241
207 212 213 218 221 217 216 223 220 220 247 225 238 261 229 209 168 199 205 172 205 201 209 208 208 212 213 212 211 209 206 209 211 214 218 221 226 231
287 227 221 218 223 225 226 238 218 207 205 224 240 233 218 215 192 187 214 210 228 175 183 198 199 205 213 214 222 218 213 211 207 209 212 214 220 225
247 257 227 217 226 222 220 231 222 210 227 207 233 240 243 211 205 194 201 196 228 199 184 216 191 205 213 210 213 215 209 207 206 207 209 209 210 216
225 246 259 251 245 239 222 232 245 221 218 208 230 226 239 240 204 206 211 207 215 205 191 213 184 215 212 215 208 209 209 208 207 206 203 206 205 207
232 245 244 253 245 250 210 220 233 240 237 236 233 238 231 235 206 213 201 219 237 199 192 208 190 212 206 213 203 207 210 212 206 203 203 202 201 201
239 251 237 244 252 253 242 248 239 234 232 235 241 238 238 228 218 201 230 200 230 210 205 183 191 194 206 209 208 206 208 210 208 206 204 200 198 195
245 255 253 253 257 259 233 239 254 257 243 240 233 251 251 243 228 227 232 223 215 212 202 189 170 154 232 201 202 202 214 214 207 205 205 203 193 190
243 271 60 37 349 331 329 271 269 297 281 271 262 254 241 243 245 232 219 211 219 236 205 196 217 205 208 260 196 191 191 200 203 217 224 205 185 190
360 337 322 329 332 308 247 244 251 256 248 251 262 261 257 249 234 226 222 222 221 221 226 193 223 200 207 220 232 134 179 175 185 203 201 199 196 200
316 286 294 306 306 304 281 254 252 248 252 250 249 256 250 255 243 229 218 212 211 214 237 219 226 223 209 224 223 183 147 200 184 183 184 186 188 194
347 318 286 274 271 261 277 266 226 225 231 249 256 256 254 255 243 227 226 207 216 235 229 227 235 237 236 232 215 202 207 184 175 191 192 199 192 200
320 303 313 310 293 282 276 266 260 235 243 251 255 264 267 251 249 235 219 218 220 221 230 227 230 232 229 226 221 217 199 188 182 175 177 192 203 206
282 289 292 270 266 277 285 290 299 295 285 260 259 263 265 263 255 230 223 225 227 223 224 216 195 209 217 221 216 214 202 198 184 183 183 194 212 208
268 300 292 310 315 333 339 324 319 330 329 323 266 265 268 262 257 253 234 227 236 221 244 166 187 192 208 229 202 211 199 198 191 194 196 200 217 217
333 340 347 350 338 339 330 318 312 318 324 327 336 324 291 284 265 251 238 229 240 234 220 206 204 209 214 227 228 210 206 211 207 219 220 222 226 219
7 354 346 341 337 335 335 331 317 309 299 302 307 322 338 340 335 340 330 288 261 230 219 213 207 200 207 134 217 209 202 215 206 210 213 216 221 206
6 4 357 356 354 354 351 344 341 349 333 330 330 313 305 298 300 301 302 264 15 334 298 305 211 176 181 207 216 220 215 210 222 237 230 206 195 217
351 344 331 334 342 347 5 2 355 350 354 347 339 333 323 308 292 295 296 288 288 293 310 288 337 11 293 232 222 234 234 231 209 221 230 229 239 255